Weather History for KNHK - October, 2012

Change the Weather History Date:

Tuesday, October 30, 2012

  Actual Average Record
Temperature  
Mean Temperature 42 °F -  
Max Temperature 46 °F 62 °F 77 °F (1996)
Min Temperature 39 °F 46 °F 33 °F (2011)
Degree Days  
Heating Degree Days 22    
Moisture  
Dew Point 38 °F    
Average Humidity 82    
Maximum Humidity 87    
Minimum Humidity 74    
Precipitation  
Precipitation 0.78 in - - ()
Sea Level Pressure  
Sea Level Pressure 29.22 in    
Wind  
Wind Speed 15 mph (SSW)    
Max Wind Speed 23 mph    
Max Gust Speed 38 mph    
Visibility 10 miles    
Events Rain    
Averages and records for this station are not official NWS values.
T = Trace of Precipitation, MM = Missing Value Source: NWS Daily Summary

Daily Weather History Graph

Daily Weather History Graph

Search for Another Location

Airport or City:

Trip Planner

Search our weather history database for the weather conditions in past years. The results will help you decide how hot, cold, wet, or windy it might be!

Date:

Astronomy

Oct. 30, 2012 Rise Set
Actual Time 7:30 AM EDT 6:07 PM EDT
Civil Twilight 7:02 AM EDT 6:35 PM EDT
Nautical Twilight 6:31 AM EDT 7:06 PM EDT
Astronomical Twilight 6:00 AM EDT 7:36 PM EDT
Moon 6:37 PM EDT (10/30) 8:13 AM EDT (10/30)
Length of Visible Light 11h 32m
Length of Day
10h 37m
Full, 99% of the Moon is Illuminated
Oct 30
Full
Nov 6
Last Quarter
Nov 13
New
Nov 20
First Quarter
Nov 28
Full

Hourly Weather History & Observations

Time (EDT) Temp. Windchill Dew Point Humidity Pressure Visibility Wind Dir Wind Speed Gust Speed Precip Events Conditions
12:04 AM 46.4 °F 38.3 °F 42.8 °F 87% 28.80 in 8.0 mi SW 23.0 mph 38.0 mph 0.04 in Rain Rain
12:52 AM 46.0 °F 38.8 °F 42.1 °F 86% 28.85 in 8.0 mi SSW 18.4 mph 35.7 mph 0.20 in Rain Rain
1:52 AM 45.0 °F 37.1 °F 39.9 °F 82% 28.90 in 8.0 mi SSW 19.6 mph 33.4 mph 0.16 in Rain Rain
2:52 AM 44.1 °F 35.4 °F 39.9 °F 85% 28.95 in 9.0 mi SSW 21.9 mph 34.5 mph 0.11 in Rain Rain
3:29 AM 44.6 °F 36.4 °F 39.2 °F 81% 28.96 in 10.0 mi SSW 20.7 mph 29.9 mph 0.06 in Rain Light Rain
3:52 AM 44.1 °F 35.9 °F 39.0 °F 82% 28.98 in 10.0 mi SSW 19.6 mph 32.2 mph 0.06 in Rain Light Rain
4:44 AM 44.6 °F 37.8 °F 39.2 °F 81% 29.01 in 10.0 mi SSW 15.0 mph 31.1 mph 0.01 in Rain Light Rain
4:52 AM 44.1 °F 37.4 °F 39.0 °F 82% 29.02 in 10.0 mi SSW 13.8 mph 25.3 mph 0.01 in Rain Light Rain
5:52 AM 43.0 °F 35.1 °F 39.0 °F 86% 29.07 in 10.0 mi SSW 17.3 mph 25.3 mph 0.02 in Rain Light Rain
6:09 AM 42.8 °F 34.3 °F 39.2 °F 87% 29.07 in 10.0 mi SSW 19.6 mph 25.3 mph 0.01 in Rain Light Rain
6:41 AM 42.8 °F 36.6 °F 39.2 °F 87% 29.10 in 10.0 mi South 11.5 mph 20.7 mph 0.03 in Rain Light Rain
6:52 AM 43.0 °F 36.0 °F 39.0 °F 86% 29.11 in 10.0 mi SSW 13.8 mph 21.9 mph 0.04 in Rain Light Rain
7:52 AM 42.1 °F 34.2 °F 37.9 °F 85% 29.16 in 10.0 mi South 16.1 mph 25.3 mph 0.06 in Rain Light Rain
8:28 AM 41.0 °F 34.3 °F 37.4 °F 87% 29.18 in 10.0 mi SSW 11.5 mph 21.9 mph 0.02 in Rain Light Rain
8:39 AM 41.0 °F 33.1 °F 37.4 °F 87% 29.19 in 10.0 mi SSW 15.0 mph 20.7 mph 0.02 in Rain Light Rain
8:52 AM 41.0 °F 34.7 °F 37.0 °F 86% 29.21 in 10.0 mi SSW 10.4 mph - 0.03 in Rain Light Rain
9:16 AM 39.2 °F 31.2 °F 35.6 °F 87% 29.22 in 9.0 mi SSW 13.8 mph 25.3 mph 0.03 in Rain Light Rain
9:32 AM 41.0 °F 32.8 °F 37.4 °F 87% 29.23 in 10.0 mi SSW 16.1 mph 21.9 mph 0.03 in Rain Light Rain
9:52 AM 41.0 °F 33.5 °F 37.0 °F 86% 29.25 in 10.0 mi South 13.8 mph - 0.04 in Rain Light Rain
10:34 AM 42.8 °F 35.8 °F 37.4 °F 81% 29.27 in 10.0 mi SSW 13.8 mph 24.2 mph 0.00 in Rain Light Rain
10:52 AM 42.1 °F 34.9 °F 37.0 °F 82% 29.28 in 10.0 mi SSW 13.8 mph 21.9 mph 0.00 in Rain Light Rain
11:10 AM 42.8 °F 37.0 °F 37.4 °F 81% 29.29 in 10.0 mi SSW 10.4 mph 19.6 mph 0.00 in   Overcast
11:52 AM 42.1 °F 37.1 °F 37.9 °F 85% 29.31 in 10.0 mi South 8.1 mph - 0.00 in   Overcast
12:52 PM 42.1 °F 36.6 °F 36.0 °F 79% 29.33 in 10.0 mi South 9.2 mph 18.4 mph 0.00 in Rain Light Rain
1:52 PM 43.0 °F 37.7 °F 37.0 °F 80% 29.34 in 10.0 mi South 9.2 mph 21.9 mph 0.02 in Rain Light Rain
2:52 PM 43.0 °F 36.4 °F 37.9 °F 82% 29.36 in 10.0 mi SSW 12.7 mph 19.6 mph 0.01 in   Overcast
3:52 PM 43.0 °F 38.8 °F 37.9 °F 82% 29.38 in 10.0 mi South 6.9 mph - 0.01 in   Overcast
4:52 PM 44.1 °F 40.8 °F 37.9 °F 79% 29.39 in 10.0 mi SSW 5.8 mph - 0.00 in   Overcast
5:19 PM 44.6 °F 40.7 °F 37.4 °F 76% 29.40 in 10.0 mi SSW 6.9 mph - N/A   Overcast
5:52 PM 44.1 °F 40.1 °F 37.9 °F 79% 29.42 in 10.0 mi SSW 6.9 mph - 0.00 in Rain Light Rain
6:52 PM 44.1 °F - 39.0 °F 82% 29.44 in 10.0 mi Calm Calm - 0.01 in Rain Light Rain
7:52 PM 44.1 °F 40.8 °F 39.9 °F 85% 29.46 in 10.0 mi SSE 5.8 mph - 0.00 in   Overcast
8:52 PM 45.0 °F 41.8 °F 37.9 °F 76% 29.48 in 10.0 mi South 5.8 mph - N/A   Overcast
9:52 PM 45.0 °F 40.6 °F 37.9 °F 76% 29.49 in 10.0 mi SSW 8.1 mph - 0.00 in   Overcast
10:52 PM 45.0 °F 43.5 °F 37.0 °F 74% 29.49 in 10.0 mi SSW 3.5 mph - N/A   Overcast
11:52 PM 45.0 °F 42.6 °F 37.0 °F 74% 29.49 in 10.0 mi SSW 4.6 mph - N/A   Overcast